TimeHST,TemperatureF,Dew PointF,Humidity,Sea Level PressureIn,VisibilityMPH,Wind Direction,Wind SpeedMPH,Gust SpeedMPH,PrecipitationIn,Events,Conditions,WindDirDegrees,DateUTC
12:55 AM,63.7,54.1,71,30.12,10.0,West,3.5,-,N/A,,Partly Cloudy,280,2013-03-05 10:55:00
1:55 AM,59.0,52.2,78,30.11,10.0,West,4.6,-,N/A,,Partly Cloudy,280,2013-03-05 11:55:00
2:55 AM,60.3,53.4,78,30.09,10.0,WNW,4.6,-,N/A,,Mostly Cloudy,300,2013-03-05 12:55:00
3:55 AM,60.6,54.3,80,30.09,10.0,NW,3.5,-,N/A,,Mostly Cloudy,320,2013-03-05 13:55:00
4:55 AM,59.0,53.6,82,30.10,10.0,Calm,Calm,-,N/A,,Mostly Cloudy,0,2013-03-05 14:55:00
5:55 AM,57.7,53.2,85,30.11,10.0,West,4.6,-,N/A,,Clear,280,2013-03-05 15:55:00
6:55 AM,57.7,52.9,84,30.13,10.0,WNW,4.6,-,N/A,,Clear,300,2013-03-05 16:55:00
7:55 AM,60.8,55.0,81,30.15,10.0,Calm,Calm,-,N/A,,Clear,0,2013-03-05 17:55:00
8:55 AM,68.0,56.5,67,30.14,10.0,ESE,4.6,-,N/A,,Mostly Cloudy,110,2013-03-05 18:55:00
9:55 AM,70.3,55.6,59,30.14,10.0,East,10.4,-,N/A,,Mostly Cloudy,100,2013-03-05 19:55:00
10:55 AM,71.6,54.3,54,30.13,10.0,East,13.8,18.4,N/A,,Scattered Clouds,100,2013-03-05 20:55:00
11:55 AM,73.2,52.9,49,30.12,10.0,ENE,8.1,17.3,N/A,,Clear,70,2013-03-05 21:55:00
12:55 PM,74.1,52.7,47,30.09,10.0,ENE,8.1,-,N/A,,Clear,70,2013-03-05 22:55:00
1:55 PM,73.9,55.0,52,30.08,10.0,East,12.7,17.3,N/A,,Partly Cloudy,80,2013-03-05 23:55:00
2:55 PM,73.9,55.2,52,30.06,10.0,ENE,8.1,-,N/A,,Mostly Cloudy,70,2013-03-06 00:55:00
3:55 PM,74.1,56.7,54,30.06,10.0,NE,11.5,20.7,N/A,,Clear,40,2013-03-06 01:55:00
4:55 PM,72.7,56.5,57,30.06,10.0,ENE,13.8,-,N/A,,Clear,60,2013-03-06 02:55:00
5:55 PM,70.9,57.9,63,30.08,10.0,ENE,9.2,-,N/A,,Partly Cloudy,70,2013-03-06 03:55:00
6:55 PM,69.1,57.9,68,30.11,10.0,NE,6.9,-,N/A,,Overcast,40,2013-03-06 04:55:00
7:55 PM,68.4,57.9,69,30.12,10.0,Calm,Calm,-,N/A,,Overcast,0,2013-03-06 05:55:00
8:55 PM,68.0,57.9,70,30.12,10.0,East,3.5,-,N/A,,Scattered Clouds,80,2013-03-06 06:55:00
9:55 PM,66.6,57.2,72,30.12,10.0,ESE,5.8,-,N/A,,Partly Cloudy,120,2013-03-06 07:55:00
10:55 PM,64.6,56.5,75,30.14,10.0,NW,4.6,-,N/A,,Mostly Cloudy,310,2013-03-06 08:55:00
11:55 PM,64.0,57.7,80,30.12,10.0,Calm,Calm,-,N/A,,Mostly Cloudy,0,2013-03-06 09:55:00